Location: Marcé
(47.5801°N, 0.3280°W)
Time: 14:34:28
(UTC+01:00)

Vanguard 3 - Pass Details

Date: 13 December 2021
Orbit: 508 x 3260 km, 33.3° (Epoch: 20 January)

Event Time Altitude Azimuth Distance (km) Brightness Sun altitude
Rises 07:13:32 0° 274° (W) 7,096 - -14.0°
Exits shadow 07:18:32 10° 267° (W) 6,224 11.1 -13.2°
Reaches altitude 10° 07:18:48 10° 267° (W) 6,180 11.1 -13.1°
Maximum altitude 07:35:20 35° 211° (SSW) 4,165 10.7 -10.6°
Drops below altitude 10° 07:48:50 10° 153° (SSE) 5,030 12.0 -8.5°
Sets 07:52:37 0° 145° (SE) 5,687 12.7 -7.9°
